Location: Newark
(25.4800°N, 85.7200°E)
Time: 10:55:34
(UTC+00:00)

Vanguard 1 Rocket - Pass Details

Date: 27 August 2019
Orbit: 652 x 4225 km, 34.3° (Epoch: 15 September)

Event Time Altitude Azimuth Distance (km) Brightness Sun altitude
Rises 15:04:32 0° 210° (SSW) 5,856 11.5 -30.9°
Reaches altitude 10° 15:10:18 10° 196° (SSW) 4,127 10.6 -32.0°
Enters shadow 15:11:38 13° 191° (S) 3,749 10.3 -32.3°
Maximum altitude 15:16:59 20° 154° (SSE) 2,589 - -33.3°
Drops below altitude 10° 15:21:37 10° 108° (ESE) 2,725 - -34.2°
Sets 15:24:25 0° 90° (E) 3,379 - -34.7°
